| time (UTC) | temp F | wind direction | speed MPH | gust MPH | rain 1hr in | rain 24hr in | rain mn in | humidity % | barometer mb |
| 20260507105043 | 46 | 236 | 3.0 | 8.0 | 0.00 | 0.00 | 0.00 | 81 | 1012.3 |
| 20260507104543 | 46 | 244 | 6.0 | 8.0 | 0.00 | 0.00 | 0.00 | 80 | 1012.3 |
| 20260507103543 | 46 | 233 | 4.0 | 13.0 | 0.00 | 0.00 | 0.00 | 80 | 1012.4 |
| 20260507103043 | 47 | 228 | 5.0 | 9.0 | 0.00 | 0.00 | 0.00 | 80 | 1012.4 |
| 20260507102545 | 47 | 235 | 4.0 | 9.0 | 0.00 | 0.00 | 0.00 | 80 | 1012.4 |
| 20260507102043 | 46 | 245 | 5.0 | 9.0 | 0.00 | 0.00 | 0.00 | 80 | 1012.4 |
| 20260507101043 | 46 | 230 | 4.0 | 8.0 | 0.00 | 0.00 | 0.00 | 79 | 1012.4 |
| 20260507100543 | 47 | 219 | 3.0 | 7.0 | 0.00 | 0.00 | 0.00 | 78 | 1012.5 |
| 20260507100044 | 47 | 247 | 5.0 | 9.0 | 0.00 | 0.00 | 0.00 | 78 | 1012.5 |
| 20260507095543 | 47 | 237 | 4.0 | 9.0 | 0.00 | 0.00 | 0.00 | 78 | 1012.5 |
| 20260507094543 | 47 | 244 | 5.0 | 8.0 | 0.00 | 0.00 | 0.00 | 77 | 1012.6 |
| 20260507094044 | 47 | 233 | 3.0 | 8.0 | 0.00 | 0.00 | 0.00 | 77 | 1012.7 |
| 20260507093543 | 47 | 243 | 3.0 | 6.0 | 0.00 | 0.00 | 0.00 | 76 | 1012.7 |
| 20260507093043 | 47 | 244 | 4.0 | 9.0 | 0.00 | 0.00 | 0.00 | 76 | 1012.8 |
| 20260507092543 | 47 | 239 | 3.0 | 9.0 | 0.00 | 0.00 | 0.00 | 76 | 1012.8 |
| 20260507092043 | 47 | 244 | 3.0 | 8.0 | 0.00 | 0.00 | 0.00 | 76 | 1012.9 |
| 20260507091543 | 46 | 254 | 4.0 | 8.0 | 0.00 | 0.00 | 0.00 | 75 | 1012.9 |
| 20260507090544 | 46 | 252 | 2.0 | 7.0 | 0.00 | 0.00 | 0.00 | 74 | 1013.0 |
| 20260507090043 | 47 | 246 | 3.0 | 7.0 | 0.00 | 0.00 | 0.00 | 73 | 1013.0 |
| 20260507085543 | 46 | 238 | 3.0 | 7.0 | 0.00 | 0.00 | 0.00 | 72 | 1013.1 |
| 20260507085044 | 47 | 253 | 3.0 | 6.0 | 0.00 | 0.00 | 0.00 | 71 | 1013.3 |
| 20260507084544 | 47 | 241 | 3.0 | 8.0 | 0.00 | 0.00 | 0.00 | 70 | 1013.4 |
| 20260507084044 | 47 | 245 | 3.0 | 8.0 | 0.00 | 0.00 | 0.00 | 70 | 1013.4 |
| 20260507083043 | 48 | 249 | 5.0 | 8.0 | 0.00 | 0.00 | 0.00 | 68 | 1013.4 |
| 20260507082544 | 48 | 246 | 5.0 | 9.0 | 0.00 | 0.00 | 0.00 | 68 | 1013.6 |
| 20260507082044 | 48 | 256 | 6.0 | 9.0 | 0.00 | 0.00 | 0.00 | 68 | 1013.6 |
| 20260507081543 | 48 | 260 | 6.0 | 8.0 | 0.00 | 0.00 | 0.00 | 67 | 1013.6 |
| 20260507080544 | 48 | 255 | 6.0 | 9.0 | 0.00 | 0.00 | 0.00 | 66 | 1013.7 |
| 20260507080045 | 48 | 255 | 5.0 | 10.0 | 0.00 | 0.00 | 0.00 | 65 | 1013.6 |
| 20260507075543 | 48 | 248 | 6.0 | 9.0 | 0.00 | 0.00 | 0.00 | 64 | 1013.7 |
| 20260507075044 | 48 | 254 | 5.0 | 8.0 | 0.00 | 0.00 | 0.00 | 64 | 1013.7 |
| 20260507074543 | 49 | 253 | 5.0 | 9.0 | 0.00 | 0.00 | 0.00 | 63 | 1013.7 |
| 20260507073544 | 49 | 255 | 5.0 | 8.0 | 0.00 | 0.00 | 0.00 | 61 | 1013.8 |
| 20260507073043 | 48 | 252 | 5.0 | 9.0 | 0.00 | 0.00 | 0.00 | 61 | 1013.9 |
| 20260507072544 | 49 | 247 | 3.0 | 8.0 | 0.00 | 0.00 | 0.00 | 59 | 1014.0 |
| 20260507072043 | 49 | 253 | 3.0 | 7.0 | 0.00 | 0.00 | 0.00 | 58 | 1014.1 |
| 20260507071044 | 49 | 260 | 4.0 | 10.0 | 0.00 | 0.00 | 0.00 | 57 | 1014.2 |
| 20260507070543 | 49 | 241 | 3.0 | 8.0 | 0.00 | 0.00 | 0.00 | 56 | 1014.3 |
| 20260507070044 | 49 | 251 | 5.0 | 7.0 | 0.00 | 0.00 | 0.00 | 56 | 1014.4 |
| 20260507065544 | 49 | 260 | 4.0 | 8.0 | 0.00 | 0.00 | 0.00 | 55 | 1014.4 |
| 20260507065043 | 49 | 243 | 2.0 | 6.0 | 0.00 | 0.00 | 0.00 | 54 | 1014.4 |
| 20260507064544 | 49 | 242 | 2.0 | 8.0 | 0.00 | 0.00 | 0.00 | 53 | 1014.5 |
| 20260507064043 | 49 | 236 | 2.0 | 7.0 | 0.00 | 0.00 | 0.00 | 52 | 1014.6 |
| 20260507063544 | 49 | 236 | 2.0 | 5.0 | 0.00 | 0.00 | 0.00 | 51 | 1014.6 |
| 20260507063044 | 49 | 221 | 2.0 | 6.0 | 0.00 | 0.00 | 0.00 | 51 | 1014.6 |
| 20260507062544 | 50 | 205 | 1.0 | 5.0 | 0.00 | 0.00 | 0.00 | 50 | 1014.7 |
| 20260507062044 | 50 | 255 | 1.0 | 6.0 | 0.00 | 0.00 | 0.00 | 49 | 1014.8 |
| 20260507061544 | 50 | 233 | 2.0 | 6.0 | 0.00 | 0.00 | 0.00 | 49 | 1014.7 |
| 20260507061044 | 50 | 235 | 1.0 | 5.0 | 0.00 | 0.00 | 0.00 | 49 | 1014.8 |
| 20260507060044 | 50 | 231 | 1.0 | 6.0 | 0.00 | 0.00 | 0.00 | 49 | 1014.9 |
| 20260507055544 | 49 | 238 | 2.0 | 6.0 | 0.00 | 0.00 | 0.00 | 50 | 1014.9 |
| 20260507055044 | 49 | 241 | 1.0 | 6.0 | 0.00 | 0.00 | 0.00 | 50 | 1014.9 |
| 20260507054544 | 49 | 230 | 1.0 | 5.0 | 0.00 | 0.00 | 0.00 | 50 | 1014.9 |
| 20260507054045 | 48 | 211 | 0.0 | 3.0 | 0.00 | 0.00 | 0.00 | 50 | 1014.8 |
| 20260507053544 | 48 | 195 | 0.0 | 3.0 | 0.00 | 0.00 | 0.00 | 50 | 1014.7 |
| 20260507053043 | 48 | 200 | 1.0 | 3.0 | 0.00 | 0.00 | 0.00 | 50 | 1014.7 |
| 20260507050544 | 48 | 209 | 0.0 | 2.0 | 0.00 | 0.00 | 0.00 | 48 | 1014.9 |
| 20260507050044 | 48 | 172 | 0.0 | 2.0 | 0.00 | 0.00 | 0.00 | 48 | 1014.9 |
| 20260507045544 | 48 | 189 | 0.0 | 0.0 | 0.00 | 0.00 | 0.00 | 48 | 1014.9 |
| 20260507045043 | 48 | 189 | 0.0 | 1.0 | 0.00 | 0.00 | 0.00 | 48 | 1014.9 |
| 20260507044544 | 48 | 176 | 0.0 | 1.0 | 0.00 | 0.00 | 0.00 | 47 | 1015.0 |
| 20260507043544 | 48 | 205 | 0.0 | 0.0 | 0.00 | 0.00 | 0.00 | 46 | 1015.1 |
| 20260507043043 | 48 | 205 | 0.0 | 0.0 | 0.00 | 0.00 | 0.00 | 46 | 1015.1 |
| 20260507042543 | 48 | 205 | 0.0 | 2.0 | 0.00 | 0.00 | 0.00 | 46 | 1015.2 |
| 20260507042044 | 49 | 176 | 0.0 | 2.0 | 0.00 | 0.00 | 0.00 | 46 | 1015.2 |
| 20260507041544 | 48 | 155 | 1.0 | 2.0 | 0.00 | 0.00 | 0.00 | 45 | 1015.2 |
| 20260507041044 | 48 | 171 | 0.0 | 0.0 | 0.00 | 0.00 | 0.00 | 45 | 1015.2 |
| 20260507040544 | 48 | 171 | 0.0 | 0.0 | 0.00 | 0.00 | 0.00 | 44 | 1015.3 |
| 20260507040044 | 48 | 171 | 0.0 | 2.0 | 0.00 | 0.00 | 0.00 | 44 | 1015.3 |
| 20260507035544 | 48 | 181 | 0.0 | 2.0 | 0.00 | 0.00 | 0.00 | 45 | 1015.3 |
| 20260507035043 | 48 | 0 | 0.0 | 0.0 | 0.00 | 0.00 | 0.00 | 46 | 1015.3 |
| 20260507034543 | 48 | 0 | 0.0 | 0.0 | 0.00 | 0.00 | 0.00 | 46 | 1015.4 |
| 20260507034044 | 48 | 0 | 0.0 | 0.0 | 0.00 | 0.00 | 0.00 | 46 | 1015.4 |
| 20260507033544 | 48 | 0 | 0.0 | 0.0 | 0.00 | 0.00 | 0.00 | 47 | 1015.4 |
| 20260507033044 | 48 | 0 | 0.0 | 0.0 | 0.00 | 0.00 | 0.00 | 47 | 1015.4 |
| 20260507032044 | 48 | 0 | 0.0 | 0.0 | 0.00 | 0.00 | 0.00 | 47 | 1015.6 |
| 20260507031544 | 48 | 0 | 0.0 | 0.0 | 0.00 | 0.00 | 0.00 | 47 | 1015.6 |
| 20260507030544 | 48 | 0 | 0.0 | 0.0 | 0.00 | 0.00 | 0.00 | 45 | 1015.4 |
| 20260507030044 | 49 | 0 | 0.0 | 0.0 | 0.00 | 0.00 | 0.00 | 44 | 1015.4 |
| 20260507025044 | 49 | 0 | 0.0 | 0.0 | 0.00 | 0.00 | 0.00 | 43 | 1015.4 |
| 20260507024544 | 49 | 0 | 0.0 | 0.0 | 0.00 | 0.00 | 0.00 | 43 | 1015.4 |
| 20260507024044 | 50 | 0 | 0.0 | 0.0 | 0.00 | 0.00 | 0.00 | 43 | 1015.3 |
| 20260507023544 | 50 | 0 | 0.0 | 0.0 | 0.00 | 0.00 | 0.00 | 43 | 1015.3 |
| 20260507023044 | 50 | 0 | 0.0 | 0.0 | 0.00 | 0.00 | 0.00 | 43 | 1015.2 |
| 20260507022544 | 50 | 0 | 0.0 | 0.0 | 0.00 | 0.00 | 0.00 | 42 | 1015.2 |
| 20260507022044 | 50 | 0 | 0.0 | 0.0 | 0.00 | 0.00 | 0.00 | 42 | 1015.2 |
| 20260507021544 | 50 | 0 | 0.0 | 0.0 | 0.00 | 0.00 | 0.00 | 42 | 1015.2 |
| 20260507020544 | 51 | 0 | 0.0 | 0.0 | 0.00 | 0.00 | 0.00 | 42 | 1015.0 |
| 20260507020044 | 52 | 0 | 0.0 | 0.0 | 0.00 | 0.00 | 0.00 | 41 | 1015.0 |
| 20260507015544 | 52 | 0 | 0.0 | 0.0 | 0.00 | 0.00 | 0.00 | 40 | 1015.0 |
| 20260507015045 | 52 | 0 | 0.0 | 0.0 | 0.00 | 0.00 | 0.00 | 40 | 1015.0 |
| 20260507014044 | 54 | 0 | 0.0 | 0.0 | 0.00 | 0.00 | 0.00 | 40 | 1015.0 |
| 20260507013544 | 54 | 0 | 0.0 | 0.0 | 0.00 | 0.00 | 0.00 | 39 | 1015.1 |
| 20260507012544 | 55 | 0 | 0.0 | 0.0 | 0.00 | 0.00 | 0.00 | 37 | 1015.1 |
| 20260507012044 | 56 | 0 | 0.0 | 0.0 | 0.00 | 0.00 | 0.00 | 37 | 1015.1 |
| 20260507011545 | 56 | 0 | 0.0 | 0.0 | 0.00 | 0.00 | 0.00 | 34 | 1015.1 |
| 20260507011044 | 57 | 0 | 0.0 | 0.0 | 0.00 | 0.00 | 0.00 | 34 | 1015.1 |
| 20260507010044 | 58 | 0 | 0.0 | 0.0 | 0.00 | 0.00 | 0.00 | 33 | 1015.1 |
| 20260507005544 | 58 | 0 | 0.0 | 2.0 | 0.00 | 0.00 | 0.00 | 33 | 1015.1 |
| 20260507004544 | 59 | 349 | 0.0 | 5.0 | 0.00 | 0.00 | 0.00 | 31 | 1015.2 |
| 20260507004044 | 59 | 346 | 1.0 | 7.0 | 0.00 | 0.00 | 0.00 | 31 | 1015.2 |
| 20260507003544 | 60 | 332 | 6.0 | 7.0 | 0.00 | 0.00 | 0.00 | 28 | 1015.1 |
| 20260507003044 | 60 | 348 | 1.0 | 5.0 | 0.00 | 0.00 | 0.00 | 28 | 1015.2 |
| 20260507002543 | 61 | 334 | 2.0 | 6.0 | 0.00 | 0.00 | 0.00 | 26 | 1015.2 |
| 20260507002044 | 61 | 307 | 3.0 | 7.0 | 0.00 | 0.00 | 0.00 | 26 | 1015.1 |
| 20260507001544 | 62 | 305 | 2.0 | 5.0 | 0.00 | 0.00 | 0.00 | 25 | 1015.2 |
| 20260507001044 | 62 | 287 | 1.0 | 8.0 | 0.00 | 0.00 | 0.00 | 26 | 1015.2 |
| 20260507000544 | 62 | 300 | 3.0 | 7.0 | 0.00 | 0.00 | 0.00 | 26 | 1015.3 |
| 20260507000044 | 62 | 331 | 7.0 | 10.0 | 0.00 | 0.00 | 0.00 | 25 | 1015.2 |
| 20260506235044 | 63 | 299 | 4.0 | 9.0 | 0.00 | 0.00 | 0.00 | 24 | 1015.3 |
| 20260506234543 | 63 | 301 | 5.0 | 9.0 | 0.00 | 0.00 | 0.00 | 24 | 1015.4 |
| 20260506234044 | 63 | 310 | 5.0 | 10.0 | 0.00 | 0.00 | 0.00 | 23 | 1015.4 |
| 20260506233545 | 63 | 331 | 4.0 | 10.0 | 0.00 | 0.00 | 0.00 | 24 | 1015.6 |
| 20260506232544 | 62 | 315 | 3.0 | 12.0 | 0.00 | 0.00 | 0.00 | 25 | 1015.4 |
| 20260506232044 | 62 | 310 | 5.0 | 10.0 | 0.00 | 0.00 | 0.00 | 24 | 1015.6 |
| 20260506231544 | 62 | 322 | 5.0 | 10.0 | 0.00 | 0.00 | 0.00 | 25 | 1015.6 |
| 20260506231044 | 62 | 335 | 3.0 | 12.0 | 0.00 | 0.00 | 0.00 | 25 | 1015.7 |
| 20260506230544 | 62 | 325 | 7.0 | 12.0 | 0.00 | 0.00 | 0.00 | 25 | 1015.6 |
| 20260506230044 | 62 | 330 | 5.0 | 9.0 | 0.00 | 0.00 | 0.00 | 26 | 1015.6 |
| 20260506225544 | 62 | 332 | 7.0 | 13.0 | 0.00 | 0.00 | 0.00 | 24 | 1015.7 |
| 20260506225044 | 62 | 328 | 2.0 | 8.0 | 0.00 | 0.00 | 0.00 | 26 | 1015.7 |
| 20260506224544 | 62 | 329 | 5.0 | 12.0 | 0.00 | 0.00 | 0.00 | 25 | 1015.6 |
| 20260506224044 | 63 | 323 | 7.0 | 12.0 | 0.00 | 0.00 | 0.00 | 25 | 1015.7 |
| 20260506223544 | 63 | 326 | 6.0 | 12.0 | 0.00 | 0.00 | 0.00 | 25 | 1015.7 |
| 20260506223044 | 63 | 330 | 6.0 | 12.0 | 0.00 | 0.00 | 0.00 | 25 | 1015.7 |
| 20260506222545 | 63 | 322 | 2.0 | 7.0 | 0.00 | 0.00 | 0.00 | 24 | 1015.7 |
| 20260506222045 | 64 | 341 | 3.0 | 9.0 | 0.00 | 0.00 | 0.00 | 25 | 1015.7 |
| 20260506221049 | 64 | 275 | 5.0 | 9.0 | 0.00 | 0.00 | 0.00 | 26 | 1016.0 |
| 20260506220044 | 63 | 333 | 4.0 | 8.0 | 0.00 | 0.00 | 0.00 | 25 | 1016.1 |
| 20260506215046 | 62 | 301 | 4.0 | 12.0 | 0.00 | 0.00 | 0.00 | 27 | 1016.3 |
| 20260506214544 | 62 | 310 | 5.0 | 16.0 | 0.00 | 0.00 | 0.00 | 26 | 1016.2 |
| 20260506214049 | 62 | 274 | 1.0 | 8.0 | 0.00 | 0.00 | 0.00 | 26 | 1016.4 |
| 20260506213545 | 62 | 331 | 7.0 | 12.0 | 0.00 | 0.00 | 0.00 | 26 | 1016.4 |
| 20260506213044 | 62 | 321 | 5.0 | 9.0 | 0.00 | 0.00 | 0.00 | 27 | 1016.4 |
| 20260506212545 | 61 | 300 | 5.0 | 9.0 | 0.00 | 0.00 | 0.00 | 27 | 1016.5 |
| 20260506212044 | 61 | 323 | 7.0 | 15.0 | 0.00 | 0.00 | 0.00 | 26 | 1016.5 |
| 20260506211544 | 62 | 315 | 4.0 | 15.0 | 0.00 | 0.00 | 0.00 | 26 | 1016.6 |
| 20260506211044 | 62 | 304 | 2.0 | 8.0 | 0.00 | 0.00 | 0.00 | 25 | 1016.7 |
| 20260506210044 | 63 | 320 | 4.0 | 9.0 | 0.00 | 0.00 | 0.00 | 26 | 1016.9 |
| 20260506205544 | 62 | 301 | 5.0 | 12.0 | 0.00 | 0.00 | 0.00 | 28 | 1017.0 |
| 20260506205045 | 61 | 321 | 5.0 | 10.0 | 0.00 | 0.00 | 0.00 | 26 | 1017.1 |
| 20260506204545 | 62 | 316 | 6.0 | 12.0 | 0.00 | 0.00 | 0.00 | 28 | 1017.2 |
| 20260506204044 | 61 | 308 | 7.0 | 17.0 | 0.00 | 0.00 | 0.00 | 31 | 1017.2 |
| 20260506203544 | 60 | 304 | 4.0 | 7.0 | 0.00 | 0.00 | 0.00 | 30 | 1017.3 |
| 20260506203045 | 60 | 316 | 3.0 | 10.0 | 0.00 | 0.00 | 0.00 | 27 | 1017.3 |
| 20260506202544 | 60 | 315 | 3.0 | 8.0 | 0.00 | 0.00 | 0.00 | 27 | 1017.3 |
| 20260506202045 | 60 | 310 | 7.0 | 14.0 | 0.00 | 0.00 | 0.00 | 27 | 1017.4 |
| 20260506201545 | 60 | 283 | 6.0 | 13.0 | 0.00 | 0.00 | 0.00 | 28 | 1017.4 |
| 20260506201044 | 60 | 322 | 7.0 | 14.0 | 0.00 | 0.00 | 0.00 | 29 | 1017.4 |
| 20260506200544 | 60 | 338 | 5.0 | 13.0 | 0.00 | 0.00 | 0.00 | 32 | 1017.5 |
| 20260506200045 | 59 | 328 | 7.0 | 10.0 | 0.00 | 0.00 | 0.00 | 31 | 1017.6 |
| 20260506195545 | 59 | 332 | 6.0 | 14.0 | 0.00 | 0.00 | 0.00 | 30 | 1017.6 |
| 20260506194545 | 60 | 317 | 5.0 | 13.0 | 0.00 | 0.00 | 0.00 | 29 | 1017.7 |
| 20260506194044 | 61 | 327 | 7.0 | 10.0 | 0.00 | 0.00 | 0.00 | 27 | 1017.7 |
| 20260506193545 | 61 | 307 | 4.0 | 8.0 | 0.00 | 0.00 | 0.00 | 31 | 1017.7 |
| 20260506193045 | 61 | 305 | 6.0 | 12.0 | 0.00 | 0.00 | 0.00 | 27 | 1017.9 |
| 20260506192044 | 60 | 324 | 7.0 | 13.0 | 0.00 | 0.00 | 0.00 | 30 | 1017.9 |
| 20260506191044 | 60 | 320 | 9.0 | 13.0 | 0.00 | 0.00 | 0.00 | 31 | 1017.9 |
| 20260506190544 | 60 | 324 | 7.0 | 13.0 | 0.00 | 0.00 | 0.00 | 29 | 1017.9 |
| 20260506190044 | 60 | 344 | 3.0 | 9.0 | 0.00 | 0.00 | 0.00 | 33 | 1017.9 |
| 20260506185545 | 59 | 298 | 3.0 | 14.0 | 0.00 | 0.00 | 0.00 | 30 | 1017.9 |
| 20260506185044 | 59 | 294 | 6.0 | 13.0 | 0.00 | 0.00 | 0.00 | 30 | 1018.0 |
| 20260506184544 | 60 | 312 | 4.0 | 12.0 | 0.00 | 0.00 | 0.00 | 29 | 1018.1 |
| 20260506184044 | 61 | 249 | 5.0 | 12.0 | 0.00 | 0.00 | 0.00 | 30 | 1018.2 |
| 20260506183544 | 60 | 315 | 6.0 | 8.0 | 0.00 | 0.00 | 0.00 | 31 | 1018.2 |
| 20260506183045 | 59 | 330 | 3.0 | 13.0 | 0.00 | 0.00 | 0.00 | 37 | 1018.3 |
| 20260506182545 | 59 | 348 | 5.0 | 9.0 | 0.00 | 0.00 | 0.00 | 32 | 1018.4 |
| 20260506182045 | 59 | 311 | 5.0 | 10.0 | 0.00 | 0.00 | 0.00 | 31 | 1018.5 |
| 20260506181544 | 58 | 337 | 2.0 | 9.0 | 0.00 | 0.00 | 0.00 | 35 | 1018.4 |
| 20260506181044 | 59 | 326 | 12.0 | 16.0 | 0.00 | 0.00 | 0.00 | 33 | 1018.4 |
| 20260506180544 | 59 | 310 | 5.0 | 13.0 | 0.00 | 0.00 | 0.00 | 29 | 1018.5 |
| 20260506180044 | 60 | 302 | 5.0 | 9.0 | 0.00 | 0.00 | 0.00 | 31 | 1018.5 |
| 20260506175544 | 59 | 285 | 6.0 | 12.0 | 0.00 | 0.00 | 0.00 | 34 | 1018.7 |
| 20260506175044 | 58 | 334 | 6.0 | 14.0 | 0.00 | 0.00 | 0.00 | 34 | 1018.7 |
| 20260506174044 | 58 | 321 | 3.0 | 9.0 | 0.00 | 0.00 | 0.00 | 32 | 1018.8 |
| 20260506173545 | 58 | 318 | 3.0 | 8.0 | 0.00 | 0.00 | 0.00 | 31 | 1018.9 |
| 20260506173045 | 58 | 299 | 5.0 | 12.0 | 0.00 | 0.00 | 0.00 | 35 | 1018.9 |
| 20260506172545 | 59 | 293 | 6.0 | 13.0 | 0.00 | 0.00 | 0.00 | 32 | 1019.0 |
| 20260506172044 | 58 | 289 | 3.0 | 10.0 | 0.00 | 0.00 | 0.00 | 37 | 1018.9 |
| 20260506171044 | 58 | 312 | 4.0 | 13.0 | 0.00 | 0.00 | 0.00 | 34 | 1019.2 |
| 20260506170544 | 58 | 312 | 7.0 | 14.0 | 0.00 | 0.00 | 0.00 | 33 | 1019.2 |
| 20260506170045 | 57 | 306 | 5.0 | 9.0 | 0.00 | 0.00 | 0.00 | 33 | 1019.2 |
| 20260506165044 | 57 | 320 | 5.0 | 9.0 | 0.00 | 0.00 | 0.00 | 34 | 1019.2 |
| 20260506164044 | 57 | 317 | 9.0 | 13.0 | 0.00 | 0.00 | 0.00 | 32 | 1019.2 |
| 20260506163545 | 56 | 320 | 5.0 | 12.0 | 0.00 | 0.00 | 0.00 | 32 | 1019.3 |
| 20260506163045 | 56 | 333 | 9.0 | 15.0 | 0.00 | 0.00 | 0.00 | 32 | 1019.2 |
| 20260506162545 | 56 | 320 | 8.0 | 14.0 | 0.00 | 0.00 | 0.00 | 31 | 1019.2 |
| 20260506162044 | 56 | 352 | 7.0 | 12.0 | 0.00 | 0.00 | 0.00 | 35 | 1019.2 |
| 20260506161544 | 56 | 316 | 4.0 | 9.0 | 0.00 | 0.00 | 0.00 | 33 | 1019.1 |
| 20260506155545 | 55 | 309 | 3.0 | 9.0 | 0.00 | 0.00 | 0.00 | 36 | 1019.1 |
| 20260506155046 | 55 | 313 | 5.0 | 12.0 | 0.00 | 0.00 | 0.00 | 32 | 1019.2 |
| 20260506154544 | 56 | 312 | 3.0 | 9.0 | 0.00 | 0.00 | 0.00 | 35 | 1019.0 |
| 20260506154044 | 55 | 337 | 5.0 | 9.0 | 0.00 | 0.00 | 0.00 | 38 | 1019.0 |
| 20260506153045 | 55 | 330 | 3.0 | 8.0 | 0.00 | 0.00 | 0.00 | 39 | 1019.0 |
| 20260506152045 | 54 | 344 | 5.0 | 7.0 | 0.00 | 0.00 | 0.00 | 40 | 1019.1 |
| 20260506151045 | 54 | 332 | 4.0 | 6.0 | 0.00 | 0.00 | 0.00 | 42 | 1019.1 |
| 20260506150044 | 53 | 351 | 5.0 | 9.0 | 0.00 | 0.00 | 0.00 | 42 | 1019.2 |
| 20260506145544 | 53 | 332 | 6.0 | 9.0 | 0.00 | 0.00 | 0.00 | 40 | 1019.2 |
| 20260506144546 | 53 | 319 | 1.0 | 2.0 | 0.00 | 0.00 | 0.00 | 43 | 1019.1 |
| 20260506144045 | 53 | 338 | 3.0 | 8.0 | 0.00 | 0.00 | 0.00 | 41 | 1019.2 |
| 20260506143545 | 52 | 335 | 1.0 | 7.0 | 0.00 | 0.00 | 0.00 | 43 | 1019.2 |
| 20260506143045 | 52 | 330 | 3.0 | 7.0 | 0.00 | 0.00 | 0.00 | 43 | 1019.2 |
| 20260506142545 | 52 | 357 | 2.0 | 5.0 | 0.00 | 0.00 | 0.00 | 46 | 1019.2 |
| 20260506142044 | 51 | 338 | 2.0 | 5.0 | 0.00 | 0.00 | 0.00 | 45 | 1019.1 |
| 20260506141545 | 51 | 340 | 3.0 | 6.0 | 0.00 | 0.00 | 0.00 | 46 | 1019.0 |
| 20260506141045 | 50 | 314 | 2.0 | 6.0 | 0.00 | 0.00 | 0.00 | 47 | 1019.1 |
| 20260506140045 | 50 | 326 | 1.0 | 3.0 | 0.00 | 0.00 | 0.00 | 47 | 1019.0 |
| 20260506135545 | 50 | 306 | 0.0 | 2.0 | 0.00 | 0.00 | 0.00 | 50 | 1019.0 |
| 20260506135045 | 49 | 313 | 1.0 | 3.0 | 0.00 | 0.00 | 0.00 | 51 | 1018.9 |
| 20260506134546 | 49 | 309 | 0.0 | 2.0 | 0.00 | 0.00 | 0.00 | 51 | 1018.9 |
| 20260506134044 | 48 | 295 | 1.0 | 3.0 | 0.00 | 0.00 | 0.00 | 51 | 1018.8 |
| 20260506133545 | 48 | 312 | 0.0 | 2.0 | 0.00 | 0.00 | 0.00 | 55 | 1018.8 |
| 20260506133045 | 47 | 323 | 0.0 | 3.0 | 0.00 | 0.00 | 0.00 | 55 | 1018.7 |
| 20260506132545 | 47 | 322 | 0.0 | 3.0 | 0.00 | 0.00 | 0.00 | 54 | 1018.7 |
| 20260506132045 | 46 | 317 | 0.0 | 3.0 | 0.00 | 0.00 | 0.00 | 57 | 1018.6 |
| 20260506131545 | 46 | 313 | 0.0 | 2.0 | 0.00 | 0.00 | 0.00 | 59 | 1018.6 |
| 20260506130045 | 44 | 287 | 1.0 | 3.0 | 0.00 | 0.00 | 0.00 | 61 | 1018.4 |
| 20260506125545 | 44 | 320 | 1.0 | 5.0 | 0.00 | 0.00 | 0.00 | 64 | 1018.3 |
| 20260506125045 | 43 | 313 | 2.0 | 3.0 | 0.00 | 0.00 | 0.00 | 64 | 1018.2 |
| 20260506124545 | 43 | 315 | 0.0 | 2.0 | 0.00 | 0.00 | 0.00 | 65 | 1018.2 |
| 20260506124045 | 43 | 346 | 0.0 | 0.0 | 0.00 | 0.00 | 0.00 | 65 | 1018.0 |
| 20260506123545 | 42 | 346 | 0.0 | 0.0 | 0.00 | 0.00 | 0.00 | 65 | 1017.9 |
| 20260506123045 | 42 | 346 | 0.0 | 0.0 | 0.00 | 0.00 | 0.00 | 66 | 1017.7 |
| 20260506122045 | 41 | 346 | 0.0 | 0.0 | 0.00 | 0.00 | 0.00 | 66 | 1017.6 |
| 20260506121545 | 41 | 346 | 0.0 | 0.0 | 0.00 | 0.00 | 0.00 | 66 | 1017.5 |
| 20260506121045 | 41 | 346 | 0.0 | 0.0 | 0.00 | 0.00 | 0.00 | 66 | 1017.6 |
| 20260506120545 | 41 | 346 | 0.0 | 0.0 | 0.00 | 0.00 | 0.00 | 65 | 1017.5 |
| 20260506120045 | 41 | 346 | 0.0 | 0.0 | 0.00 | 0.00 | 0.00 | 66 | 1017.4 |
| 20260506115545 | 40 | 346 | 0.0 | 0.0 | 0.00 | 0.00 | 0.00 | 66 | 1017.3 |
| 20260506114045 | 41 | 346 | 0.0 | 0.0 | 0.00 | 0.00 | 0.00 | 65 | 1017.1 |
| 20260506113045 | 41 | 346 | 0.0 | 0.0 | 0.00 | 0.00 | 0.00 | 64 | 1017.0 |
| 20260506112545 | 41 | 346 | 0.0 | 0.0 | 0.00 | 0.00 | 0.00 | 63 | 1017.0 |
| 20260506111544 | 40 | 346 | 0.0 | 0.0 | 0.00 | 0.00 | 0.00 | 64 | 1017.0 |
| 20260506111045 | 41 | 346 | 0.0 | 0.0 | 0.00 | 0.00 | 0.00 | 64 | 1017.0 |
| 20260506110545 | 41 | 346 | 0.0 | 0.0 | 0.00 | 0.00 | 0.00 | 62 | 1016.9 |